Voltar ao catálogo

CENTISPACE-1 S15

AtivoNavegaçãoLEO
NORAD 62584·PAYLOAD·🇨🇳 China

Lançado Jan 13, 2025 de Yellow Sea Launch Area

Loading…

Próximas Passagens (próximas 24 horas)

TLE

AtualizadoSource: Space-Track

Época: Sep 14, 2026, 14:39 UTC

1 62584U 25007K   26257.61074370 -.00000046  00000-0  90016-4 0  9990
2 62584  54.9885 339.8991 0011632 246.6637 113.3096 13.80583723 87081

Acompanhe CENTISPACE-1 S15 em tempo real com AllMySat

Download on the App Store